Westerly, RI

10:29 AM EDT on June 28, 2017 (GMT -0400)
Westerly State

Weather History for KWST - November, 2012

Change the Weather History Date:

Friday, November 9, 2012

  Actual Average (KGON) Record (KGON)
Temperature  
Mean Temperature 46 °F -  
Max Temperature 54 °F 55 °F 72 °F (1975)
Min Temperature 37 °F 36 °F 21 °F (1967)
Degree Days  
Heating Degree Days 20    
Moisture  
Dew Point 25 °F    
Average Humidity 50    
Maximum Humidity 70    
Minimum Humidity 26    
Precipitation  
Precipitation 0.00 in - - ()
Sea Level Pressure  
Sea Level Pressure 29.97 in    
Wind  
Wind Speed 9 mph (NNW)    
Max Wind Speed 17 mph    
Max Gust Speed 28 mph    
Visibility 10 miles    
Events      
Averages and records for this station are not official NWS values.
T = Trace of Precipitation, MM = Missing Value Source: NWS Daily Summary

Daily Weather History Graph

Daily Weather History Graph

Search for Another Location

Airport or City:

Trip Planner

Search our weather history database for the weather conditions in past years. The results will help you decide how hot, cold, wet, or windy it might be!

Date:

Astronomy

Nov. 09, 2012 Rise Set
Actual Time 6:28 AM EST 4:32 PM EST
Civil Twilight 5:59 AM EST 5:02 PM EST
Nautical Twilight 5:26 AM EST 5:35 PM EST
Astronomical Twilight 4:53 AM EST 6:07 PM EST
Moon 1:21 AM EST (11/9) 1:47 PM EST (11/9)
Length of Visible Light 11h 02m
Length of Day
10h 03m
Waning Crescent, 23% of the Moon is Illuminated
Nov 9
Waning Crescent
Nov 13
New
Nov 20
First Quarter
Nov 28
Full
Dec 6
Last Quarter

Hourly Weather History & Observations

Time (EST) Temp. Windchill Dew Point Humidity Pressure Visibility Wind Dir Wind Speed Gust Speed Precip Events Conditions
12:53 AM 39.0 °F 31.8 °F 30.0 °F 70% 29.78 in 10.0 mi NNW 11.5 mph 17.3 mph N/A   Clear
1:53 AM 39.0 °F 32.8 °F 30.0 °F 70% 29.81 in 10.0 mi NW 9.2 mph 16.1 mph N/A   Partly Cloudy
2:53 AM 39.0 °F 32.3 °F 30.0 °F 70% 29.81 in 10.0 mi NNW 10.4 mph 16.1 mph N/A   Partly Cloudy
3:53 AM 37.9 °F 31.5 °F 28.9 °F 70% 29.84 in 10.0 mi NW 9.2 mph - N/A   Clear
4:53 AM 37.9 °F 32.1 °F 28.0 °F 68% 29.86 in 10.0 mi NW 8.1 mph - N/A   Clear
5:53 AM 37.0 °F 29.3 °F 28.0 °F 70% 29.87 in 10.0 mi NNW 11.5 mph 21.9 mph N/A   Clear
6:53 AM 37.9 °F 30.5 °F 27.0 °F 65% 29.90 in 10.0 mi NNW 11.5 mph 20.7 mph N/A   Clear
7:53 AM 39.9 °F 31.8 °F 27.0 °F 60% 29.93 in 10.0 mi NNW 15.0 mph 21.9 mph N/A   Clear
8:53 AM 42.1 °F 33.9 °F 26.1 °F 53% 29.93 in 10.0 mi NNW 17.3 mph 27.6 mph N/A   Clear
9:53 AM 45.0 °F 38.2 °F 24.1 °F 44% 29.94 in 10.0 mi NNW 15.0 mph 19.6 mph N/A   Clear
10:53 AM 48.9 °F - 24.1 °F 38% 29.97 in 10.0 mi NNW 10.4 mph 19.6 mph N/A   Clear
11:53 AM 50.0 °F - 21.9 °F 33% 29.97 in 10.0 mi NNW 16.1 mph 25.3 mph N/A   Clear
12:53 PM 52.0 °F - 21.9 °F 31% 29.97 in 10.0 mi WNW 9.2 mph - N/A   Clear
1:53 PM 54.0 °F - 21.0 °F 28% 29.96 in 10.0 mi NW 9.2 mph 17.3 mph N/A   Clear
2:53 PM 54.0 °F - 19.9 °F 26% 29.98 in 10.0 mi Variable 6.9 mph 16.1 mph N/A   Clear
3:53 PM 52.0 °F - 19.9 °F 28% 30.00 in 10.0 mi NW 6.9 mph - N/A   Clear
4:53 PM 50.0 °F - 21.0 °F 32% 30.02 in 10.0 mi Variable 4.6 mph - N/A   Clear
5:53 PM 48.0 °F - 21.0 °F 34% 30.06 in 10.0 mi Calm Calm - N/A   Clear
6:53 PM 46.9 °F - 21.0 °F 36% 30.09 in 10.0 mi Calm Calm - N/A   Clear
7:53 PM 45.0 °F - 21.9 °F 40% 30.11 in 10.0 mi Calm Calm - N/A   Clear
8:53 PM 43.0 °F - 23.0 °F 45% 30.13 in 10.0 mi Calm Calm - N/A   Clear
9:53 PM 39.0 °F - 26.1 °F 60% 30.14 in 10.0 mi Calm Calm - N/A   Clear
10:53 PM 39.9 °F - 26.1 °F 58% 30.15 in 10.0 mi Calm Calm - N/A   Clear
11:53 PM 39.0 °F - 27.0 °F 62% 30.16 in 10.0 mi Calm Calm - N/A   Clear